ロニオス-タッカー彗星

328P/LONEOS-Tucker (1998)

English version
Home page
Updated on October 17, 2015

---------------------------------------------------------------------

・ プロフィール

符号 328P/1998 QP54
発見日 1998年8月27日, 9月13日
発見光度 17.1等, 16.7等
発見者 Lowell Observatory Near-Earth Object Search, Roy A. Tucker (Tucson, AZ)

・ 写真集

・ 軌道要素

Epoch 1998 Sept. 24.0 TT = JDT 2451080.5
T 1998 Oct. 6.40329 TT                                  MPCW
q   1.8817936            (2000.0)            P               Q
n   0.11454870     Peri.   30.10115     +0.97063881     -0.22118702
a   4.1989683      Node   341.92871     +0.10961801     +0.75656404
e   0.5518438      Incl.   17.74315     +0.21411258     +0.61537562
P   8.60
From 250 observations 1998 Aug. 27-2015 Oct. 4, mean residual 0".9.

・ 星図

・ 光度変化

        m1 = 5.0 + 5 logΔ + 40.0 log r

---------------------------------------------------------------------

軌道要素はM.P.E.C. 2015-T06に掲載されたものです。
星図は StellaNavigator Ver.2.0 for Windows (アストロアーツ 編著 / アスキー出版局刊) で作成したものです。
光度グラフはComet for Windowsで作成したものです。

---------------------------------------------------------------------

Copyright(C) Seiichi Yoshida (comet@aerith.net). All rights reserved.